Wind_Speed
44 44 43 41 40 39 39 39 38 39 38 38 37 37 36 35 34 34 33 32 32 32 32 31 31 31 30 30 30 30 30 31 31 32 32 32 33 33 34 34 35 35 36 37
45 44 41 42 41 41 41 40 39 40 39 38 38 38 37 36 35 35 34 33 32 32 33 32 32 31 31 31 31 31 31 31 32 32 33 33 34 34 35 36 36 37 38 39
45 43 42 42 42 42 42 40 39 40 40 40 39 39 38 37 36 36 35 34 34 34 33 33 33 33 32 32 32 32 32 32 32 33 33 34 34 35 36 37 38 39 40 41
45 45 44 44 43 43 42 41 41 41 41 40 41 41 38 37 37 36 35 35 35 34 34 34 34 34 33 33 33 33 33 33 33 33 34 34 35 36 37 38 39 41 42 43
45 45 45 44 43 43 43 42 42 42 42 43 42 42 40 38 37 36 35 36 35 35 35 35 34 34 35 34 34 34 34 34 34 35 35 36 37 37 38 40 41 42 43 44
46 45 45 45 44 44 44 43 43 43 44 45 42 43 42 39 38 36 35 36 36 36 36 36 35 35 36 35 35 35 35 35 36 36 37 37 38 39 40 41 42 43 44 45
46 46 46 45 45 45 45 45 44 45 46 46 43 44 44 40 38 37 36 37 37 37 37 37 36 36 36 36 36 36 36 37 37 38 38 39 39 40 41 42 43 44 45 46
45 45 45 45 45 44 45 45 44 44 45 46 44 45 44 41 40 39 38 38 38 38 38 38 37 37 37 37 37 38 38 38 39 39 40 41 41 42 43 44 45 45 46 47
45 45 45 44 44 44 45 45 44 44 45 46 46 46 44 42 41 40 40 39 39 39 39 39 38 38 38 38 38 39 39 40 41 41 42 43 44 44 45 46 46 47 48 49
45 45 45 44 44 45 45 44 44 45 45 45 46 45 45 43 42 41 40 40 40 40 39 39 39 39 39 39 40 40 40 41 42 43 44 44 45 46 47 48 48 49 50 51
45 45 45 45 45 44 44 45 45 45 46 45 44 45 45 44 43 42 41 41 40 40 40 40 40 40 40 40 41 41 42 43 43 44 45 45 46 47 48 49 50 51 52 53
42 44 45 45 44 44 44 45 45 46 46 45 44 45 43 42 42 42 42 41 41 41 41 40 41 41 41 41 42 43 43 44 45 46 46 47 47 48 49 50 51 52 53 54
39 42 44 45 45 45 45 45 46 46 46 45 44 45 45 44 43 42 42 41 40 41 41 41 42 42 42 42 43 44 45 45 46 47 47 48 49 50 51 52 53 54 55 56
40 42 43 44 44 43 44 44 44 45 46 46 45 43 43 44 44 44 43 42 41 41 41 41 42 42 43 43 44 45 45 46 47 48 48 49 50 51 52 53 54 55 55 55
39 40 41 42 44 44 43 43 43 44 45 45 44 43 43 43 43 42 42 42 42 43 43 43 43 43 43 44 45 45 46 47 48 48 49 49 50 51 52 54 54 54 54 54
37 38 39 39 41 42 43 43 43 44 44 45 44 44 43 43 43 43 42 42 42 43 43 43 43 44 44 44 45 45 46 47 48 48 49 50 51 52 53 53 53 53 53 53
35 36 37 38 38 40 42 41 42 42 43 43 44 43 44 44 44 44 44 43 43 43 43 43 44 44 45 46 46 46 47 48 48 49 49 50 51 51 52 52 52 53 53 53
33 34 36 36 36 39 40 39 40 40 42 43 44 44 45 45 45 45 45 45 44 44 44 44 44 45 45 46 46 47 48 48 49 49 49 50 50 51 51 51 52 52 52 52
34 34 34 35 37 37 38 38 38 39 40 41 42 43 43 44 45 45 45 45 45 44 44 44 44 45 45 46 46 47 47 48 48 48 49 49 50 50 50 51 51 50 50 50
34 35 34 35 36 36 36 36 37 38 39 40 41 42 42 42 43 43 44 44 44 43 43 43 43 44 44 45 45 46 46 47 47 47 48 48 49 49 49 49 48 48 48 48
34 34 34 34 35 35 34 35 35 37 38 38 39 40 41 41 41 42 42 43 43 43 43 43 43 43 43 44 44 45 46 46 46 46 46 47 47 47 47 47 47 46 46 45
32 33 33 34 34 34 32 34 35 35 36 37 38 39 40 40 40 40 41 42 42 42 43 43 42 42 43 44 44 45 45 45 44 44 45 45 45 45 45 45 45 45 44 43
28 30 31 33 33 32 32 33 34 34 35 35 36 36 37 38 39 39 39 40 40 41 42 42 42 42 43 44 44 44 43 43 43 43 44 44 45 45 45 45 45 44 43 42
25 26 28 29 30 32 32 32 33 33 33 34 34 35 35 36 37 38 38 38 38 39 40 41 42 42 43 43 43 42 42 43 43 43 44 44 45 45 45 45 44 44 43 42
24 26 26 27 28 29 31 31 32 32 32 33 34 34 35 35 36 36 37 37 38 38 39 40 40 41 41 41 41 41 42 42 42 43 43 43 44 44 44 44 43 42 41 40
24 25 25 26 26 27 27 29 29 29 30 30 31 32 33 34 35 35 36 36 37 37 38 38 39 40 40 40 40 41 41 42 42 42 42 42 42 42 42 40 39 38 38 37
Wind_Direction
232 232 231 232 233 233 234 235 235 237 237 237 238 239 239 239 241 243 244 245 246 246 246 248 249 251 254 256 258 260 261 263 264 264 265 266 267 269 271 272 273 274 275 277
231 232 231 231 231 232 233 234 235 237 238 238 239 240 240 241 242 243 244 246 247 247 247 248 250 252 255 257 259 261 263 264 265 266 267 268 269 270 272 273 273 275 276 278
232 232 231 231 231 232 233 234 235 238 239 239 240 240 241 241 242 243 244 245 246 247 248 249 251 253 255 258 259 261 264 265 266 267 269 270 270 272 273 274 275 276 278 279
232 231 231 231 232 232 233 234 236 238 240 241 241 242 240 242 243 244 245 246 247 249 249 251 252 254 256 258 260 262 264 266 267 268 270 271 272 274 276 276 277 278 279 280
232 232 232 232 232 233 234 234 236 238 240 241 242 244 241 242 243 244 245 246 248 250 251 252 253 255 257 259 261 263 265 266 268 269 270 272 274 276 277 278 279 279 280 281
231 232 232 232 232 233 234 235 236 238 241 242 242 245 244 243 245 245 246 248 249 251 252 253 254 255 257 259 261 263 265 267 268 270 271 273 275 277 278 279 280 280 281 282
231 232 232 231 232 232 233 234 236 238 240 242 242 245 246 245 246 247 246 248 250 251 253 254 255 256 258 260 262 263 265 267 269 271 273 274 276 277 279 280 281 282 283 283
233 232 232 232 232 234 234 235 237 240 243 244 244 246 247 247 248 248 248 249 250 252 253 254 255 257 258 260 261 263 265 267 269 271 273 275 276 277 279 280 282 283 284 285
233 233 232 232 232 233 233 234 236 239 242 245 246 246 248 249 249 250 250 249 251 252 254 255 256 257 259 260 262 264 266 267 269 272 274 275 276 278 279 281 283 284 286 287
233 234 232 232 232 233 234 234 235 237 240 244 247 248 249 249 249 250 251 251 252 253 254 255 257 258 260 261 263 265 266 268 270 272 274 275 276 278 279 281 282 284 286 288
232 234 234 233 232 233 234 233 235 237 239 242 246 249 250 252 251 251 251 252 252 253 254 255 256 258 260 261 263 265 267 269 271 273 275 276 277 278 280 281 283 284 287 289
232 233 234 235 234 235 235 235 236 238 240 241 245 249 251 253 254 254 254 253 253 254 255 256 257 258 260 262 264 266 268 270 272 274 274 275 277 279 280 282 284 285 287 288
231 233 234 234 234 234 234 234 235 237 239 241 243 247 249 252 254 255 255 255 255 255 256 258 258 259 261 262 264 266 269 271 272 274 275 276 278 279 281 283 285 286 287 289
232 234 235 236 237 236 236 236 235 237 239 240 242 246 249 251 254 256 257 257 257 257 258 259 261 261 262 263 265 267 269 271 273 274 275 276 278 280 282 283 285 287 288 289
234 236 236 238 239 238 237 237 237 237 239 241 242 244 248 249 252 254 256 257 258 258 259 260 261 263 264 265 266 268 270 272 273 274 275 276 278 280 282 284 285 287 288 288
234 236 238 239 239 241 240 238 238 239 239 240 241 243 245 249 251 253 254 256 257 258 259 260 261 263 264 265 267 268 270 272 273 274 274 276 278 280 282 284 286 287 288 288
234 236 238 239 239 241 241 239 240 241 241 242 242 242 244 247 250 252 253 255 257 259 260 261 263 264 264 265 267 268 270 271 272 273 274 276 278 281 282 284 286 287 288 289
233 235 237 238 238 240 242 242 242 242 242 242 242 243 245 247 249 252 253 255 256 258 260 262 264 264 265 266 268 269 270 272 273 274 275 277 279 281 283 285 287 287 288 288
230 232 235 236 239 242 242 243 244 244 244 244 244 245 246 247 249 251 253 255 257 260 261 262 264 265 266 267 268 270 271 272 273 274 276 278 279 282 284 286 287 288 288 288
232 232 233 235 238 241 243 244 244 245 245 245 246 246 247 249 250 252 254 256 258 260 262 263 264 266 267 268 269 270 272 273 273 274 276 278 281 283 284 286 287 288 288 287
233 234 234 235 238 242 243 244 244 245 246 246 247 247 248 251 253 254 255 257 259 261 262 264 266 267 268 269 270 271 272 273 274 275 277 279 281 283 284 286 287 287 287 287
237 237 237 237 239 241 243 244 246 248 249 249 249 249 250 251 252 254 256 258 260 262 263 265 265 267 268 269 271 272 273 274 274 275 277 279 281 282 284 286 286 286 286 286
236 238 240 240 241 242 244 245 246 247 249 249 251 251 252 252 254 256 257 259 261 263 264 265 265 267 269 270 271 272 273 273 274 275 277 280 281 283 284 286 286 286 285 286
234 235 238 240 241 242 243 245 246 247 249 250 252 253 253 253 254 256 258 260 261 263 265 265 266 268 269 270 271 272 273 273 275 277 278 280 282 283 284 284 285 285 285 285
236 236 238 240 242 243 243 245 247 248 250 252 253 253 253 254 254 256 258 259 261 263 264 266 267 268 268 269 270 272 273 274 276 278 280 281 282 283 284 284 283 283 284 283
238 240 241 242 243 244 246 247 249 249 250 252 253 254 255 255 256 257 258 260 262 264 265 266 267 267 268 268 270 272 274 276 277 278 280 281 283 284 284 283 282 282 284 284
Height
5659 5665 5670 5677 5681 5686 5689 5693 5697 5701 5705 5709 5712 5716 5720 5724 5727 5730 5733 5736 5738 5741 5743 5746 5748 5750 5752 5755 5756 5758 5759 5760 5761 5762 5762 5763 5763 5763 5763 5763 5763 5762 5762 5761
5651 5657 5664 5667 5672 5676 5680 5685 5689 5693 5696 5700 5704 5708 5712 5716 5720 5724 5727 5729 5732 5734 5737 5739 5742 5744 5746 5748 5750 5751 5752 5753 5754 5754 5755 5755 5755 5755 5755 5755 5754 5754 5753 5752
5642 5651 5654 5658 5663 5668 5673 5678 5682 5685 5688 5692 5696 5700 5705 5709 5713 5716 5719 5722 5725 5727 5730 5733 5735 5737 5739 5741 5743 5744 5744 5745 5746 5747 5747 5747 5747 5747 5747 5746 5746 5745 5744 5743
5632 5639 5644 5649 5654 5659 5665 5670 5673 5676 5680 5684 5688 5691 5698 5701 5705 5709 5712 5715 5718 5721 5723 5726 5728 5730 5732 5734 5735 5736 5737 5738 5739 5739 5739 5739 5739 5739 5738 5738 5737 5735 5734 5733
5623 5630 5635 5640 5647 5651 5656 5661 5665 5668 5671 5675 5679 5682 5690 5693 5697 5701 5705 5708 5711 5713 5716 5718 5721 5723 5724 5726 5727 5728 5729 5730 5731 5731 5731 5731 5731 5731 5730 5728 5727 5726 5724 5722
5614 5619 5625 5631 5637 5641 5646 5652 5656 5659 5661 5665 5672 5675 5679 5685 5690 5694 5698 5700 5703 5706 5708 5710 5713 5715 5716 5718 5719 5720 5721 5722 5723 5723 5723 5723 5722 5722 5720 5719 5717 5716 5714 5712
5604 5609 5615 5622 5627 5632 5637 5643 5647 5649 5652 5657 5664 5665 5670 5677 5681 5685 5690 5692 5695 5697 5700 5702 5705 5707 5708 5710 5711 5712 5713 5714 5714 5714 5714 5714 5713 5712 5711 5709 5708 5706 5704 5702
5594 5601 5607 5613 5618 5623 5628 5634 5639 5643 5646 5650 5654 5656 5663 5668 5673 5676 5680 5684 5686 5689 5691 5694 5696 5698 5700 5701 5702 5703 5704 5705 5705 5705 5705 5704 5703 5702 5701 5699 5698 5696 5694 5692
5585 5592 5597 5603 5609 5614 5618 5623 5630 5634 5636 5640 5644 5649 5655 5659 5663 5667 5671 5675 5678 5680 5683 5685 5687 5689 5691 5692 5693 5694 5695 5695 5696 5695 5695 5694 5693 5692 5691 5689 5687 5685 5683 5680
5576 5581 5588 5593 5598 5604 5610 5615 5619 5623 5627 5631 5636 5640 5646 5650 5654 5658 5662 5665 5668 5671 5674 5676 5678 5680 5682 5683 5684 5685 5685 5686 5686 5685 5685 5684 5683 5681 5680 5678 5676 5674 5671 5668
5566 5572 5578 5583 5589 5596 5601 5605 5609 5614 5618 5624 5628 5634 5636 5640 5644 5648 5652 5656 5659 5661 5664 5666 5668 5670 5672 5673 5674 5675 5675 5675 5675 5675 5674 5672 5671 5670 5668 5666 5664 5662 5659 5656
5558 5563 5568 5575 5581 5586 5590 5596 5601 5606 5610 5615 5620 5626 5627 5631 5634 5638 5642 5645 5649 5651 5654 5656 5658 5660 5662 5663 5664 5665 5665 5665 5664 5664 5662 5661 5660 5658 5657 5654 5652 5649 5646 5643
5549 5554 5559 5564 5571 5575 5580 5586 5591 5596 5601 5605 5610 5617 5618 5621 5625 5628 5632 5635 5638 5641 5644 5646 5648 5650 5651 5653 5653 5654 5654 5654 5653 5652 5651 5650 5648 5647 5644 5642 5639 5636 5633 5629
5541 5545 5551 5557 5561 5567 5572 5578 5582 5586 5590 5596 5601 5607 5609 5611 5615 5618 5621 5625 5628 5631 5633 5635 5637 5639 5641 5642 5642 5642 5642 5642 5641 5640 5639 5638 5636 5634 5632 5629 5626 5623 5619 5615
5532 5537 5542 5547 5552 5557 5563 5568 5572 5577 5582 5587 5593 5596 5600 5602 5605 5608 5611 5614 5617 5620 5622 5625 5627 5628 5629 5630 5631 5631 5631 5630 5629 5628 5627 5625 5624 5621 5619 5616 5613 5609 5606 5602
5524 5529 5534 5538 5543 5547 5552 5557 5562 5567 5572 5577 5581 5586 5589 5592 5595 5598 5601 5604 5606 5609 5611 5613 5615 5617 5618 5618 5618 5619 5618 5618 5617 5616 5614 5613 5611 5609 5606 5603 5600 5596 5592 5589
5517 5522 5526 5530 5534 5537 5542 5549 5553 5558 5563 5567 5571 5576 5579 5582 5585 5588 5591 5593 5596 5598 5600 5602 5604 5605 5606 5606 5606 5606 5606 5605 5604 5603 5602 5600 5598 5595 5592 5590 5587 5583 5579 5576
5510 5513 5517 5521 5526 5529 5537 5540 5544 5548 5552 5556 5560 5564 5568 5572 5574 5577 5580 5583 5585 5587 5589 5591 5592 5593 5593 5594 5594 5594 5593 5592 5591 5590 5588 5587 5585 5582 5579 5577 5573 5570 5566 5563
5502 5506 5510 5514 5517 5521 5527 5531 5535 5539 5543 5546 5550 5554 5557 5561 5563 5567 5569 5572 5574 5576 5578 5579 5580 5581 5581 5581 5581 5581 5581 5579 5578 5577 5576 5574 5571 5569 5566 5564 5560 5557 5554 5550
5495 5499 5503 5506 5510 5514 5519 5523 5526 5530 5533 5537 5540 5544 5547 5550 5553 5557 5558 5560 5562 5564 5566 5567 5568 5569 5569 5569 5569 5568 5568 5567 5566 5564 5563 5561 5558 5556 5553 5551 5548 5544 5541 5538
5488 5491 5495 5498 5501 5505 5510 5514 5517 5522 5525 5528 5531 5533 5537 5540 5543 5546 5547 5549 5551 5553 5554 5555 5556 5557 5557 5557 5556 5556 5555 5554 5553 5551 5550 5548 5546 5543 5541 5538 5535 5532 5529 5527
5480 5484 5488 5491 5495 5501 5503 5506 5510 5512 5515 5518 5521 5524 5527 5529 5532 5534 5536 5538 5539 5541 5542 5543 5544 5544 5544 5544 5544 5544 5543 5541 5540 5539 5538 5536 5534 5531 5529 5526 5524 5521 5518 5516
5474 5478 5481 5485 5490 5492 5494 5497 5500 5503 5506 5508 5511 5514 5516 5519 5521 5524 5525 5527 5528 5529 5530 5531 5532 5532 5532 5532 5532 5531 5530 5529 5528 5527 5526 5524 5522 5519 5516 5514 5512 5509 5507 5505
5468 5471 5474 5477 5481 5484 5487 5489 5492 5494 5497 5499 5502 5504 5507 5509 5511 5513 5514 5516 5517 5518 5519 5520 5520 5521 5520 5520 5519 5519 5518 5517 5516 5515 5514 5512 5510 5507 5505 5502 5500 5498 5496 5494
5462 5465 5467 5470 5473 5476 5479 5481 5484 5486 5489 5491 5493 5495 5497 5499 5501 5502 5504 5505 5506 5507 5508 5508 5508 5509 5508 5508 5508 5507 5506 5505 5504 5503 5502 5500 5497 5495 5493 5490 5488 5486 5484 5482
5456 5459 5461 5464 5467 5469 5472 5474 5476 5478 5480 5482 5484 5486 5488 5489 5491 5492 5493 5494 5495 5496 5496 5497 5497 5497 5497 5496 5496 5495 5494 5493 5492 5491 5490 5488 5486 5483 5481 5479 5478 5475 5474 5471